RH
74 61 76 96 95 70 81 62 54 45 40 35 32 31 32 33 34 36 36 35 34 32 32 29 28 28 27 25 25 25 24 25 24 24 23 22 21 20 17 17 18 19 20
63 57 55 74 81 100 66 62 56 49 46 44 39 33 31 29 29 30 33 33 30 32 33 34 35 34 33 32 30 29 30 28 26 29 29 25 24 22 22 22 24 23 22
61 63 64 79 83 98 88 77 60 46 42 39 38 36 31 28 29 31 29 27 28 29 30 33 35 35 33 37 38 31 32 33 33 31 31 29 27 28 27 28 27 26 20
75 68 67 73 78 79 83 81 55 47 46 44 41 37 35 34 33 33 32 31 32 34 34 36 35 34 36 43 40 37 36 37 38 35 34 33 34 34 30 31 32 31 27
73 74 77 77 73 71 67 62 58 51 48 46 45 42 42 44 42 37 34 34 35 36 36 37 40 43 45 49 45 43 43 43 42 42 43 42 42 37 34 33 32 30 26
43 50 62 71 78 75 72 71 64 58 47 45 45 41 50 57 57 49 43 38 38 38 37 44 51 49 49 48 50 48 48 50 47 50 47 45 43 42 41 42 34 29 26
40 41 41 39 40 44 52 53 48 44 38 35 40 36 40 58 59 66 52 54 51 51 50 52 56 58 57 54 57 54 55 56 54 54 53 55 48 44 38 34 31 32 30
43 46 45 42 41 40 38 36 34 33 33 33 33 33 35 49 51 56 52 50 54 55 61 65 65 62 59 56 58 57 62 66 59 56 57 49 38 38 35 34 30 28 28
46 44 44 42 43 44 42 38 38 37 36 36 37 33 34 70 47 40 50 50 58 59 68 68 72 70 61 56 59 62 60 63 49 45 32 30 34 34 31 29 32 32 32
65 44 44 45 43 40 41 42 41 41 41 40 40 38 49 94 41 36 38 44 60 65 73 76 79 80 70 60 57 58 58 46 34 33 32 31 37 37 37 34 33 34 36
68 60 49 48 47 46 45 46 43 41 44 43 42 42 79 78 39 38 40 40 54 66 86 92 87 80 78 65 60 52 48 39 34 33 37 39 39 41 41 40 38 37 35
71 84 78 68 52 47 46 45 44 40 48 48 42 44 72 69 53 42 40 42 45 68 69 84 78 77 71 67 56 51 43 36 36 40 44 44 45 45 46 42 42 39 35
73 82 77 78 63 53 47 44 43 42 51 57 54 55 60 100 79 65 64 53 49 63 56 61 63 57 62 59 55 49 46 43 44 45 44 49 50 53 51 46 44 38 33
74 82 95 81 62 50 47 48 47 48 56 69 62 68 74 86 100 98 71 59 62 72 73 66 66 62 56 52 50 48 53 57 56 54 54 55 57 54 53 49 42 37 31
67 81 81 69 55 52 57 63 62 69 79 79 85 72 87 88 99 100 90 81 85 88 93 94 93 86 81 73 69 67 67 66 70 71 66 64 61 61 58 51 41 32 27
69 80 73 75 59 58 65 73 75 89 100 94 95 93 86 97 97 98 100 100 91 92 88 98 96 90 84 82 79 78 73 70 73 72 77 78 74 71 59 48 36 28 23
62 60 70 66 100 100 77 80 100 100 100 98 95 95 91 90 92 100 95 82 76 70 76 78 83 80 89 94 86 82 80 77 74 81 80 79 74 62 53 42 29 25 22
65 74 78 100 99 100 100 100 100 100 100 100 100 100 100 98 92 93 85 75 66 60 63 88 94 91 82 74 74 76 74 76 76 81 75 76 66 57 42 31 28 27 27
64 70 98 100 97 100 100 90 99 100 100 100 100 100 100 99 92 86 79 68 60 54 51 50 50 51 51 50 47 46 49 54 57 57 64 72 72 60 46 36 33 33 32
63 66 86 100 100 100 99 94 100 85 91 98 100 100 100 100 96 82 78 71 66 61 56 52 49 50 48 45 44 44 44 44 43 46 53 59 64 79 83 51 40 45 45
70 66 93 100 100 100 81 100 100 70 70 74 100 100 97 93 91 92 96 88 79 72 67 63 56 52 50 50 47 46 45 46 47 50 54 64 77 84 90 95 82 84 77
74 66 69 84 86 100 100 98 88 80 100 87 66 88 95 97 99 100 100 100 100 92 80 71 66 74 72 72 61 54 51 54 55 57 60 62 63 60 61 70 76 73 81
66 51 100 100 100 100 100 100 100 99 100 100 100 100 100 100 100 100 100 100 100 100 87 83 92 91 92 86 82 80 82 77 79 86 89 84 83 80 82 72 68 71 71
36 59 56 80 94 100 100 100 100 100 100 100 100 100 100 100 100 100 100 100 100 100 100 100 100 99 86 76 77 73 77 79 96 98 100 100 99 89 84 76 65 51 50
23 41 45 100 95 100 100 100 100 100 100 100 100 100 100 100 100 100 100 100 100 100 100 89 97 75 78 74 74 68 65 65 67 92 97 87 86 78 65 54 49 47 51
26 28 32 80 100 100 100 100 100 100 100 100 100 100 100 100 100 100 100 100 94 82 70 87 86 88 85 69 66 66 68 70 68 65 67 70 67 66 64 67 64 65 62
Wind_Speed
39 38 37 35 34 33 33 29 27 26 25 25 24 24 23 24 23 22 22 22 22 22 22 22 22 23 23 24 25 26 28 30 31 31 31 31 32 33 33 34 35 37 38
42 40 39 39 38 37 35 33 32 30 29 28 28 27 27 26 27 26 26 26 27 27 28 28 27 27 27 28 27 26 25 27 28 28 28 30 31 31 32 32 33 35 36
46 45 43 42 42 41 40 37 35 32 32 32 31 31 31 30 31 31 30 29 29 30 29 30 31 31 30 29 28 28 28 26 27 28 28 28 29 30 31 32 33 34 35
48 47 46 46 46 45 43 41 39 37 37 37 37 36 36 36 36 36 35 35 34 34 33 32 32 32 31 28 28 27 28 27 28 28 28 28 29 30 31 33 34 34 37
44 47 47 48 48 47 45 44 43 41 37 37 37 36 35 35 37 38 37 38 37 34 33 33 33 31 29 28 29 28 27 26 27 27 28 27 29 30 29 31 33 35 36
43 42 44 45 46 47 47 45 41 37 33 32 34 33 33 33 34 36 37 37 36 35 35 34 33 32 31 29 28 28 29 27 26 26 27 28 30 31 32 32 33 34 36
46 44 42 42 40 40 40 39 35 33 33 32 33 32 32 32 34 36 37 38 37 36 36 36 34 33 31 30 29 29 29 29 28 29 29 30 31 32 31 32 33 35 38
50 48 46 44 43 41 40 38 37 35 34 34 34 35 34 34 36 37 39 39 38 37 37 36 35 36 34 33 33 32 29 31 31 29 30 30 30 30 31 33 35 38 40
52 50 48 46 46 46 43 41 40 40 38 38 37 38 37 36 40 41 41 41 40 39 40 39 38 38 38 37 36 36 33 33 33 32 30 29 30 31 34 36 38 39 41
56 55 52 50 49 48 47 45 44 43 43 42 41 42 40 43 43 44 43 43 43 43 42 42 41 40 40 41 41 40 37 35 34 33 34 33 33 35 37 38 40 41 44
58 57 56 55 52 52 50 49 48 46 46 46 45 43 46 49 46 47 47 44 45 46 45 45 45 43 42 42 43 42 39 36 36 37 37 38 38 40 41 42 42 43 45
61 62 59 58 56 54 53 52 51 50 48 49 49 46 50 51 51 49 47 45 46 46 46 47 46 46 43 44 45 45 42 40 40 40 40 42 43 44 44 46 46 46 46
59 60 60 59 59 57 57 56 54 53 51 50 51 49 48 52 51 51 50 47 45 45 45 47 48 47 47 47 47 45 43 43 44 44 46 45 47 47 48 47 47 47 47
65 65 62 61 61 60 60 59 58 55 52 52 51 53 51 53 52 51 52 50 46 48 48 48 48 49 49 49 48 47 45 46 47 48 49 50 51 51 49 49 48 51 49
72 69 67 64 63 61 60 58 57 54 52 54 52 52 54 54 55 54 54 53 52 53 51 51 51 51 51 52 51 51 50 50 52 52 53 53 53 52 51 50 51 50 48
70 69 66 60 60 63 61 57 57 54 53 53 53 54 53 55 56 56 54 56 55 54 52 51 51 53 52 52 52 52 53 53 54 54 54 55 55 53 53 52 53 50 48
73 74 61 61 62 56 57 58 58 55 52 52 51 51 53 54 55 56 56 57 57 54 54 53 53 54 54 53 53 53 53 53 54 55 56 56 55 54 54 54 51 50 49
66 66 55 45 45 49 53 52 56 58 56 54 54 53 54 55 55 57 57 58 57 56 56 55 55 54 54 54 55 54 54 53 54 54 56 55 56 54 54 52 52 51 51
71 56 59 51 58 52 59 54 52 54 56 56 56 56 56 56 58 59 60 60 59 59 59 58 58 59 58 57 56 57 57 56 55 56 55 55 55 56 55 54 54 55 57
74 67 63 58 66 58 54 52 56 60 60 59 55 54 55 57 58 61 62 64 63 63 63 62 62 61 60 61 61 60 60 58 59 60 59 59 59 59 60 59 58 59 61
75 69 66 68 57 58 66 60 62 63 62 61 60 62 61 60 60 60 62 65 65 65 67 67 65 65 66 66 67 65 65 64 64 64 63 62 62 64 64 65 66 67 68
79 67 59 63 74 76 67 64 65 67 68 72 71 68 68 65 64 66 66 67 68 68 68 67 67 67 69 69 69 69 69 68 70 69 68 68 68 70 71 73 73 75 76
80 71 67 59 66 81 83 82 74 74 77 78 76 72 69 68 67 68 70 70 69 71 71 71 70 69 70 71 72 73 73 73 74 74 74 73 72 73 74 76 78 79 80
80 81 75 67 70 77 75 79 82 83 81 80 77 73 68 66 67 67 66 69 68 72 71 71 71 70 71 72 72 70 72 70 73 76 74 73 74 75 74 76 79 80 80
76 80 75 78 54 44 85 71 73 78 81 78 75 73 74 75 73 74 75 75 75 74 74 73 72 72 73 74 73 76 73 75 75 76 78 76 77 79 81 82 80 81 82
76 78 82 87 85 78 69 63 69 72 71 71 72 69 73 76 77 81 80 84 80 81 78 74 74 76 76 78 78 81 76 78 77 78 80 81 83 83 83 87 88 90 89
Wind_Direction
238 241 242 245 251 248 246 249 246 253 257 259 266 269 273 278 281 284 287 291 294 294 297 295 294 293 293 292 291 291 291 288 284 283 286 285 285 286 284 283 285 287 288
235 238 241 241 244 247 250 253 249 253 257 261 265 268 270 274 278 281 282 284 287 289 292 292 293 294 297 295 295 294 295 293 290 288 289 290 287 285 283 282 283 285 288
235 235 237 239 242 246 249 252 251 255 258 262 265 268 272 276 279 280 281 283 287 290 292 294 294 294 297 298 298 296 297 298 290 290 289 290 293 290 287 288 288 291 296
235 236 236 239 241 245 247 251 255 257 259 263 267 269 272 277 277 278 280 282 286 290 293 294 297 298 299 297 298 296 297 295 292 290 292 294 295 293 291 291 295 298 302
236 237 238 238 242 245 249 252 257 260 260 262 265 269 273 276 279 281 281 283 285 287 291 294 296 299 300 299 299 298 296 293 293 294 295 299 296 295 297 296 300 302 305
233 235 237 240 242 245 248 252 254 256 257 259 264 269 271 274 277 280 283 285 287 289 288 292 294 295 297 300 300 296 295 291 290 294 298 299 302 301 301 301 303 305 308
233 233 235 238 241 243 245 248 249 252 257 260 265 270 272 273 275 279 283 287 290 290 290 292 293 294 296 297 296 295 294 290 290 293 297 302 302 302 302 304 306 309 308
233 235 236 238 241 243 245 247 249 254 258 261 267 271 273 272 273 275 279 284 286 288 289 291 291 292 293 296 295 295 294 294 294 294 297 301 302 300 304 305 308 310 311
234 236 238 239 240 242 244 247 250 254 258 262 265 270 273 270 268 273 277 280 283 285 286 288 290 292 292 293 295 295 293 294 296 295 298 300 305 305 305 307 310 310 309
235 237 238 240 241 244 246 249 252 255 258 262 265 269 270 265 270 273 274 276 279 282 283 286 288 289 290 292 294 294 293 294 293 296 299 301 305 306 307 308 309 307 308
238 239 240 241 243 245 248 250 253 257 258 262 263 266 264 263 269 271 274 277 279 281 282 283 285 286 285 288 290 292 292 291 293 296 299 302 304 305 308 308 307 309 308
237 240 242 243 244 247 250 252 255 257 258 260 264 265 264 268 269 271 273 275 277 280 281 282 283 283 284 284 288 288 289 290 294 297 300 302 302 304 307 306 306 306 307
236 240 243 247 249 251 253 255 256 260 259 260 260 261 263 266 270 270 272 274 276 279 281 283 284 284 284 285 285 286 287 292 294 296 296 298 300 302 302 304 303 304 304
234 240 243 244 249 253 254 255 258 260 258 260 259 257 261 264 268 270 270 273 277 279 280 282 284 286 287 287 290 290 291 293 295 296 296 297 299 300 301 302 303 304 304
239 239 244 250 253 256 258 257 257 259 258 255 256 257 257 261 263 266 273 277 278 277 280 280 283 284 286 287 288 289 291 292 294 294 294 296 297 298 300 300 302 302 302
238 243 248 250 260 260 258 260 261 260 256 254 256 256 257 260 263 267 270 271 273 276 278 280 281 282 284 286 287 289 289 290 292 293 295 296 297 297 298 298 300 301 300
235 243 251 254 261 255 257 260 260 257 256 254 254 259 260 262 265 267 270 273 273 275 277 279 281 282 285 288 289 290 290 290 291 292 293 294 294 295 296 297 298 298 300
233 235 234 247 241 259 259 260 258 257 256 255 257 261 261 262 264 267 270 273 275 276 277 277 280 282 285 287 288 288 289 290 291 293 294 294 295 295 296 296 296 298 298
229 227 234 236 245 254 256 255 256 256 253 256 259 260 262 264 266 269 271 274 274 276 277 279 281 282 283 285 286 288 288 289 289 291 293 294 294 295 294 294 294 296 298
227 225 226 230 241 247 244 252 257 254 251 255 258 259 267 265 268 269 271 273 275 277 279 280 279 280 282 283 283 285 288 290 291 291 292 291 290 292 292 291 292 294 295
225 225 225 224 235 234 243 243 240 250 258 255 257 263 270 269 270 269 271 273 274 276 278 277 279 280 281 283 284 284 285 287 289 290 290 291 292 293 294 292 290 292 294
224 224 226 241 241 235 237 247 247 252 257 262 264 267 269 269 269 270 271 273 275 276 277 279 281 281 283 283 283 284 285 287 287 287 288 288 289 290 290 290 291 292 293
224 217 207 231 235 237 239 239 244 251 254 258 264 267 268 269 271 272 272 275 276 278 279 280 282 282 283 284 284 285 286 286 288 290 289 287 287 287 289 290 289 291 291
224 222 218 226 242 243 242 246 249 252 256 259 262 264 267 268 270 273 273 276 280 281 281 280 280 282 282 284 284 286 287 288 288 288 289 289 289 288 289 290 291 294 293
224 224 213 212 226 229 243 247 252 254 255 257 259 262 265 268 270 270 271 273 275 277 278 278 279 280 282 284 284 286 286 288 288 286 286 284 286 289 291 291 291 292 292
223 225 224 222 226 228 231 249 245 250 256 259 260 264 268 271 271 268 270 271 272 272 276 276 278 279 281 285 284 285 287 288 287 287 288 287 287 290 291 292 292 293 294